[Date Prev][Date Next][Thread Prev][Thread Next] - [Date Index][Thread Index][Author Index]
2 Line ISS Keps 1-1
- Subject: [sarex] 2 Line ISS Keps 1-1
- From: "Dave Larsen PhD" <doc@xxxxxxxxxxx>
- Date: Thu, 1 Jan 2004 04:08:58 -0800
ISS
1 25544U 98067A 04001.17854899 .00022425 00000-0 21766-3 0 9558
2 25544 51.6302 100.5419 0006460 326.5174 123.4281 15.66228178291967
----
Via the sarex mailing list at AMSAT.ORG courtesy of AMSAT-NA.
To unsubscribe, send "unsubscribe sarex" to Majordomo@amsat.org
AMSAT Home